Terug naar catalogus

STARLINK-35135

ActiefCommunicatieVLEO
NORAD 65629·PAYLOAD·🇺🇸 United States

Gelanceerd Sep 18, 2025 vanaf Cape Canaveral Space Force Station

Loading…

Volgende Passages (komende 24 uur)

TLE

VersSource: CelesTrak SupGP

Epoch: Sep 15, 2026, 03:39 UTC

1 65629C 25210H   26258.15256944  .00048876  00000+0  14442-2 0  2584
2 65629  53.1573 143.0457 0001279  83.4538 330.7015 15.34362327    14

Volg STARLINK-35135 in realtime met AllMySat

Download on the App Store